Guayaquil, Ecuador

10:42 PM -05 en Julio 22, 2018 (GMT -0500)
Jose Joaquin de Olmedo

Tiempo Historia de SEGU - Julio, 2018

Change the Weather History Date:

Jueves, Julio 12, 2018

  Actual Average Record
Temperature  
Temperatura media 76 ° F -  
Temperatura máxima 83 ° F 79 ° F 91 ° F (2014)
Temperatura mínima 69 ° F 67 ° F 64 ° F (1999)
Cooling Degree Days 11    
Growing Degree Days 26 (Base 50)    
Moisture  
Punto de rocío 66 ° F    
Average Humidity 73    
Maximum Humidity 83    
Minimum Humidity 56    
Precipitación  
Precipitación 0.00 pul 0.01 pul - ()
Presión al nivel del mar  
Presión al nivel del mar 29.87 pul    
Viento  
Velocidad del viento 8 mph ()    
Velocidad máxima del viento 16 mph    
Max Gust Speed -    
Visibilidad 6.3 Millas    
Eventos      
Averages and records for this station are not official NWS values.
T = Trace of Precipitation, MM = Missing Value Source: Averaged Metar Reports

Daily Weather History Graph

Daily Weather History Graph

Search for Another Location

Airport or City:

Astronomía

Jul. 12, 2018 Salida Puesta
Hora real 6:25 AM -05 6:25 PM -05
Crepúsculo civil 6:02 AM -05 6:47 PM -05
Crepúsculo náutico 5:36 AM -05 7:13 PM -05
Crepúsculo astronómico 5:10 AM -05 7:39 PM -05
Luna 5:47 AM -05 (7/12) 6:11 PM -05 (7/12)
Horas de luz 12h 44m
Horas de luz
12h 00m
Creciente menguante, 0% of the Moon is Illuminated
Jul 12
Creciente menguante
Jul 12
Nueva
Jul 19
Cuarto creciente
Jul 27
Luna llena
Ago 4
Cuarto menguante

Hourly Weather History & Observations

Hora (-05) Temp. Índice de calor Punto de rocío Humedad Presión Visibilidad Wind Dir Velocidad del viento Velocidad de ráfagas Precip Eventos Condiciones
12:00 AM 71.6 ° F - 64.4 ° F 78% 29.86 pul 6.2 mi SO 10.4 mph - N/A   Muy nublado
1:00 AM 71.6 ° F - 64.4 ° F 78% 29.86 pul 6.2 mi SO 6.9 mph - N/A   Muy nublado
2:00 AM 71.6 ° F - 64.4 ° F 78% 29.86 pul 6.2 mi SO 12.7 mph - N/A   Muy nublado
3:00 AM 71.6 ° F - 64.4 ° F 78% 29.86 pul 6.2 mi SO 13.8 mph - N/A   Muy nublado
4:00 AM 71.6 ° F - 64.4 ° F 78% 29.83 pul 6.2 mi SO 10.4 mph - N/A   Muy nublado
5:00 AM 71.6 ° F - 64.4 ° F 78% 29.86 pul 6.2 mi SO 4.6 mph - N/A   Muy nublado
6:00 AM 71.6 ° F - 64.4 ° F 78% 29.86 pul 6.2 mi SO 9.2 mph - N/A   Muy nublado
7:00 AM 69 ° F - 64 ° F 81% 29.88 pul 6 mi SO 5.8 mph - -   Bruma
7:00 AM 69.8 ° F - 64.4 ° F 83% 29.86 pul 6.2 mi SO 5.8 mph - N/A   Nubes dispersas
8:00 AM 73.4 ° F - 64.4 ° F 73% 29.89 pul 6.2 mi SO 10.4 mph - N/A   Muy nublado
9:00 AM 75.2 ° F - 66.2 ° F 73% 29.92 pul 6.2 mi SSO 8.1 mph - N/A   Muy nublado
10:00 AM 77 ° F - 66 ° F 61% 29.91 pul 6 mi SO 8.1 mph - -   Bruma
10:00 AM 77.0 ° F - 66.2 ° F 69% 29.92 pul 6.2 mi SO 8.1 mph - N/A   Muy nublado
11:00 AM 78.8 ° F - 66.2 ° F 65% 29.89 pul 6.2 mi Sur 5.8 mph - N/A   Muy nublado
12:00 PM 78.8 ° F - 66.2 ° F 65% 29.89 pul 6.2 mi SSE 9.2 mph - N/A   Nubes dispersas
1:00 PM 81 ° F - 68 ° F 56% 29.87 pul 9 mi SSE 9.2 mph - -   Bruma
1:00 PM 80.6 ° F 83.2 ° F 68.0 ° F 65% 29.86 pul 6.2 mi SSE 9.2 mph - N/A   Parcialmente nublado
2:00 PM 82.4 ° F 85.4 ° F 68.0 ° F 62% 29.83 pul 6.2 mi SSE 8.1 mph - N/A   Parcialmente nublado
3:00 PM 82.4 ° F 85.4 ° F 68.0 ° F 62% 29.80 pul 6.2 mi SSE 9.2 mph - N/A   Parcialmente nublado
4:00 PM 84.2 ° F 88.4 ° F 69.8 ° F 62% 29.80 pul 6.2 mi SE 5.8 mph - N/A   Parcialmente nublado
5:00 PM 77.0 ° F - 71.6 ° F 83% 30.01 pul 6.2 mi SSE 6.9 mph - N/A   Muy nublado
6:00 PM 78.8 ° F - 68.0 ° F 69% 29.80 pul 6.2 mi SSE 8.1 mph - N/A   Nubes dispersas
7:00 PM 78 ° F - 69 ° F 66% 29.85 pul 6 mi Sur 6.9 mph - -   Bruma
7:00 PM 77.0 ° F - 68.0 ° F 74% 29.83 pul 6.2 mi SSO 11.5 mph - N/A   Nubes dispersas
8:00 PM 75.2 ° F - 68.0 ° F 78% 29.86 pul 6.2 mi SSO 12.7 mph - N/A   Nubes dispersas
9:00 PM 73.4 ° F - 66.2 ° F 78% 29.89 pul 6.2 mi SSO 12.7 mph - N/A   Nubes dispersas
10:00 PM 71.6 ° F - 66.2 ° F 83% 29.89 pul 6.2 mi SO 16.1 mph - N/A   Nubes dispersas
11:00 PM 71.6 ° F - 66.2 ° F 83% 29.89 pul 6.2 mi SO 15.0 mph - N/A   Nubes dispersas